| time (UTC) | temp F | wind direction | speed knots | gust knots | rain 1hr in | rain 24hr in | rain mn in | humidity % | barometer mb |
| 20260506024536 | 56 | 0 | 0.0 | 0.0 | 0.00 | 0.00 | 0.00 | 43 | 1017.9 |
| 20260506023615 | 56 | 0 | 0.0 | 0.0 | 0.00 | 0.00 | 0.00 | 44 | 1017.9 |
| 20260506022703 | 56 | 0 | 0.0 | 0.0 | 0.00 | 0.00 | 0.00 | 44 | 1017.9 |
| 20260506021824 | 56 | 298 | 0.0 | 2.6 | 0.00 | 0.00 | 0.00 | 44 | 1017.9 |
| 20260506020915 | 57 | 291 | 0.9 | 7.8 | 0.00 | 0.00 | 0.00 | 44 | 1017.9 |
| 20260506020003 | 57 | 311 | 1.7 | 13.9 | 0.00 | 0.00 | 0.00 | 44 | 1017.9 |
| 20260506015436 | 57 | 305 | 2.6 | 13.9 | 0.00 | 0.00 | 0.00 | 43 | 1017.9 |
| 20260506014524 | 57 | 310 | 4.3 | 12.2 | 0.00 | 0.00 | 0.00 | 42 | 1017.9 |
| 20260506013615 | 58 | 297 | 6.1 | 14.8 | 0.00 | 0.00 | 0.00 | 42 | 1017.9 |
| 20260506012736 | 58 | 305 | 5.2 | 12.2 | 0.00 | 0.00 | 0.00 | 42 | 1017.9 |
| 20260506011803 | 58 | 317 | 4.3 | 15.6 | 0.00 | 0.00 | 0.00 | 42 | 1017.9 |
| 20260506010936 | 59 | 322 | 4.3 | 13.0 | 0.00 | 0.00 | 0.00 | 41 | 1017.9 |
| 20260506010003 | 59 | 310 | 6.1 | 14.8 | 0.00 | 0.00 | 0.00 | 40 | 1017.9 |
| 20260506005436 | 59 | 298 | 3.5 | 13.9 | 0.00 | 0.00 | 0.00 | 39 | 1017.9 |
| 20260506004515 | 60 | 295 | 6.1 | 14.8 | 0.00 | 0.00 | 0.00 | 38 | 1017.9 |
| 20260506003636 | 60 | 309 | 7.0 | 13.9 | 0.00 | 0.00 | 0.00 | 38 | 1017.9 |
| 20260506002715 | 61 | 309 | 5.2 | 15.6 | 0.00 | 0.00 | 0.00 | 37 | 1017.9 |
| 20260506001803 | 61 | 304 | 4.3 | 13.9 | 0.00 | 0.00 | 0.00 | 37 | 1017.9 |
| 20260506000915 | 61 | 311 | 6.1 | 13.9 | 0.00 | 0.00 | 0.00 | 38 | 1017.9 |
| 20260506000015 | 62 | 322 | 4.3 | 13.9 | 0.00 | 0.00 | 0.00 | 37 | 1017.9 |
| 20260505235436 | 62 | 323 | 6.1 | 18.2 | 0.00 | 0.00 | 0.00 | 36 | 1017.9 |
| 20260505234515 | 63 | 350 | 7.0 | 16.5 | 0.00 | 0.00 | 0.00 | 35 | 1017.9 |
| 20260505233615 | 66 | 326 | 7.8 | 18.2 | 0.00 | 0.00 | 0.00 | 32 | 1017.9 |
| 20260505232703 | 70 | 315 | 1.7 | 17.4 | 0.00 | 0.00 | 0.00 | 10 | 1017.9 |
| 20260505231803 | 71 | 276 | 1.7 | 9.6 | 0.00 | 0.00 | 0.00 | 8 | 1017.9 |
| 20260505230936 | 72 | 268 | 1.7 | 9.6 | 0.00 | 0.00 | 0.00 | 8 | 1017.9 |
| 20260505230015 | 72 | 252 | 1.7 | 9.6 | 0.00 | 0.00 | 0.00 | 8 | 1017.9 |
| 20260505225415 | 72 | 238 | 1.7 | 8.7 | 0.00 | 0.00 | 0.00 | 8 | 1017.9 |
| 20260505224503 | 72 | 272 | 3.5 | 11.3 | 0.00 | 0.00 | 0.00 | 9 | 1017.9 |
| 20260505223636 | 72 | 321 | 2.6 | 11.3 | 0.00 | 0.00 | 0.00 | 9 | 1017.9 |
| 20260505222736 | 71 | 235 | 1.7 | 14.8 | 0.00 | 0.00 | 0.00 | 9 | 1017.9 |
| 20260505221824 | 71 | 294 | 1.7 | 7.0 | 0.00 | 0.00 | 0.00 | 8 | 1017.9 |
| 20260505220915 | 72 | 302 | 1.7 | 12.2 | 0.00 | 0.00 | 0.00 | 9 | 1017.9 |
| 20260505220024 | 71 | 293 | 2.6 | 13.0 | 0.00 | 0.00 | 0.00 | 8 | 1017.9 |
| 20260505215415 | 71 | 300 | 2.6 | 13.0 | 0.00 | 0.00 | 0.00 | 8 | 1017.9 |
| 20260505214515 | 71 | 271 | 2.6 | 11.3 | 0.00 | 0.00 | 0.00 | 8 | 1017.9 |
| 20260505213615 | 72 | 255 | 2.6 | 11.3 | 0.00 | 0.00 | 0.00 | 7 | 1017.9 |
| 20260505212715 | 72 | 290 | 1.7 | 8.7 | 0.00 | 0.00 | 0.00 | 7 | 1017.9 |
| 20260505211815 | 71 | 256 | 1.7 | 8.7 | 0.00 | 0.00 | 0.00 | 8 | 1017.9 |
| 20260505210915 | 72 | 274 | 0.9 | 7.8 | 0.00 | 0.00 | 0.00 | 9 | 1017.9 |
| 20260505210015 | 72 | 229 | 1.7 | 7.8 | 0.00 | 0.00 | 0.00 | 9 | 1017.9 |
| 20260505205415 | 72 | 256 | 2.6 | 9.6 | 0.00 | 0.00 | 0.00 | 9 | 1017.9 |
| 20260505204515 | 72 | 312 | 1.7 | 9.6 | 0.00 | 0.00 | 0.00 | 10 | 1017.9 |
| 20260505203603 | 72 | 282 | 2.6 | 10.4 | 0.00 | 0.00 | 0.00 | 10 | 1017.9 |
| 20260505202715 | 72 | 297 | 1.7 | 8.7 | 0.00 | 0.00 | 0.00 | 10 | 1017.9 |
| 20260505201803 | 72 | 268 | 2.6 | 13.0 | 0.00 | 0.00 | 0.00 | 11 | 1017.9 |
| 20260505200903 | 72 | 245 | 1.7 | 11.3 | 0.00 | 0.00 | 0.00 | 10 | 1017.9 |
| 20260505200003 | 72 | 309 | 3.5 | 15.6 | 0.00 | 0.00 | 0.00 | 11 | 1017.9 |
| 20260505195415 | 72 | 314 | 4.3 | 15.6 | 0.00 | 0.00 | 0.00 | 11 | 1017.9 |
| 20260505194503 | 72 | 227 | 0.9 | 8.7 | 0.00 | 0.00 | 0.00 | 12 | 1017.9 |
| 20260505193615 | 71 | 294 | 1.7 | 12.2 | 0.00 | 0.00 | 0.00 | 13 | 1017.9 |
| 20260505192715 | 71 | 251 | 1.7 | 12.2 | 0.00 | 0.00 | 0.00 | 13 | 1017.9 |
| 20260505191815 | 71 | 315 | 2.6 | 13.9 | 0.00 | 0.00 | 0.00 | 14 | 1017.9 |
| 20260505190903 | 71 | 314 | 1.7 | 14.8 | 0.00 | 0.00 | 0.00 | 15 | 1017.9 |
| 20260505190015 | 70 | 296 | 2.6 | 16.5 | 0.00 | 0.00 | 0.00 | 16 | 1017.9 |
| 20260505185436 | 70 | 220 | 2.6 | 8.7 | 0.00 | 0.00 | 0.00 | 15 | 1017.9 |
| 20260505184515 | 70 | 281 | 2.6 | 13.0 | 0.00 | 0.00 | 0.00 | 15 | 1017.9 |
| 20260505183603 | 70 | 273 | 2.6 | 10.4 | 0.00 | 0.00 | 0.00 | 15 | 1017.9 |
| 20260505182715 | 70 | 324 | 3.5 | 13.0 | 0.00 | 0.00 | 0.00 | 15 | 1017.9 |
| 20260505181824 | 70 | 293 | 2.6 | 14.8 | 0.00 | 0.00 | 0.00 | 15 | 1017.9 |
| 20260505180915 | 69 | 198 | 1.7 | 12.2 | 0.00 | 0.00 | 0.00 | 16 | 1017.9 |
| 20260505180036 | 69 | 218 | 5.2 | 13.9 | 0.00 | 0.00 | 0.00 | 16 | 1017.9 |
| 20260505175403 | 69 | 314 | 4.3 | 13.9 | 0.00 | 0.00 | 0.00 | 16 | 1017.9 |
| 20260505174503 | 68 | 347 | 2.6 | 13.0 | 0.00 | 0.00 | 0.00 | 21 | 1017.9 |
| 20260505173615 | 67 | 91 | 0.9 | 5.2 | 0.00 | 0.00 | 0.00 | 28 | 1017.9 |
| 20260505172715 | 67 | 318 | 1.7 | 7.0 | 0.00 | 0.00 | 0.00 | 33 | 1017.9 |
| 20260505171815 | 67 | 70 | 3.5 | 8.7 | 0.00 | 0.00 | 0.00 | 33 | 1017.9 |
| 20260505170915 | 66 | 71 | 1.7 | 7.8 | 0.00 | 0.00 | 0.00 | 34 | 1017.9 |
| 20260505170003 | 66 | 71 | 1.7 | 5.2 | 0.00 | 0.00 | 0.00 | 35 | 1017.9 |
| 20260505165403 | 67 | 71 | 1.7 | 5.2 | 0.00 | 0.00 | 0.00 | 36 | 1017.9 |
| 20260505164515 | 66 | 71 | 0.9 | 4.3 | 0.00 | 0.00 | 0.00 | 36 | 1017.9 |
| 20260505163615 | 66 | 71 | 0.9 | 7.8 | 0.00 | 0.00 | 0.00 | 38 | 1017.9 |
| 20260505162715 | 65 | 74 | 1.7 | 7.8 | 0.00 | 0.00 | 0.00 | 36 | 1017.9 |
| 20260505161836 | 64 | 75 | 0.9 | 6.1 | 0.00 | 0.00 | 0.00 | 35 | 1017.9 |
| 20260505160924 | 63 | 76 | 0.9 | 4.3 | 0.00 | 0.00 | 0.00 | 39 | 1017.9 |
| 20260505152715 | 62 | 193 | 0.0 | 2.6 | 0.00 | 0.00 | 0.00 | 46 | 1017.9 |
| 20260505151815 | 61 | 193 | 0.0 | 2.6 | 0.00 | 0.00 | 0.00 | 48 | 1017.9 |
| 20260505150915 | 61 | 194 | 0.9 | 4.3 | 0.00 | 0.00 | 0.00 | 49 | 1017.9 |
| 20260505124536 | 50 | 0 | 0.0 | 0.0 | 0.00 | 0.00 | 0.00 | 58 | 1017.9 |
| 20260505123615 | 51 | 0 | 0.0 | 0.0 | 0.00 | 0.00 | 0.00 | 63 | 1017.9 |
| 20260505122703 | 51 | 0 | 0.0 | 0.9 | 0.00 | 0.00 | 0.00 | 62 | 1017.9 |
| 20260505121815 | 51 | 0 | 0.0 | 0.0 | 0.00 | 0.00 | 0.00 | 47 | 1017.9 |
| 20260505120903 | 52 | 205 | 0.9 | 4.3 | 0.00 | 0.00 | 0.00 | 48 | 1017.9 |
| 20260505120015 | 53 | 205 | 0.9 | 4.3 | 0.00 | 0.00 | 0.00 | 62 | 1017.9 |
| 20260505115415 | 52 | 205 | 0.9 | 3.5 | 0.00 | 0.00 | 0.00 | 63 | 1017.9 |
| 20260505114515 | 52 | 205 | 0.9 | 4.3 | 0.00 | 0.00 | 0.00 | 64 | 1017.9 |
| 20260505113615 | 52 | 205 | 0.9 | 5.2 | 0.00 | 0.00 | 0.00 | 64 | 1017.9 |
| 20260505112715 | 52 | 207 | 2.6 | 6.1 | 0.00 | 0.00 | 0.00 | 64 | 1017.9 |
| 20260505111803 | 52 | 214 | 0.9 | 6.1 | 0.00 | 0.00 | 0.00 | 65 | 1017.9 |
| 20260505110915 | 52 | 215 | 0.0 | 3.5 | 0.00 | 0.00 | 0.00 | 65 | 1017.9 |
| 20260505101815 | 53 | 189 | 0.0 | 2.6 | 0.00 | 0.00 | 0.00 | 62 | 1017.9 |
| 20260505100915 | 54 | 189 | 0.0 | 2.6 | 0.00 | 0.00 | 0.00 | 61 | 1017.9 |
| 20260505100024 | 54 | 190 | 0.0 | 2.6 | 0.00 | 0.00 | 0.00 | 59 | 1017.9 |
| 20260505095415 | 55 | 181 | 1.7 | 8.7 | 0.00 | 0.00 | 0.00 | 59 | 1017.9 |
| 20260505094503 | 54 | 202 | 2.6 | 7.8 | 0.00 | 0.00 | 0.00 | 60 | 1017.9 |
| 20260505093615 | 53 | 205 | 0.9 | 5.2 | 0.00 | 0.00 | 0.00 | 61 | 1017.9 |
| 20260505092703 | 53 | 208 | 0.9 | 3.5 | 0.00 | 0.00 | 0.00 | 62 | 1017.9 |
| 20260505091815 | 53 | 211 | 0.9 | 4.3 | 0.00 | 0.00 | 0.00 | 61 | 1017.9 |
| 20260505090915 | 52 | 196 | 1.7 | 6.1 | 0.00 | 0.00 | 0.00 | 62 | 1017.9 |
| 20260505090003 | 51 | 0 | 0.0 | 0.0 | 0.00 | 0.00 | 0.00 | 59 | 1017.9 |
| 20260505085415 | 52 | 0 | 0.0 | 0.0 | 0.00 | 0.00 | 0.00 | 59 | 1017.9 |
| 20260505084515 | 52 | 198 | 0.0 | 2.6 | 0.00 | 0.00 | 0.00 | 58 | 1017.9 |
| 20260505083603 | 52 | 0 | 0.0 | 0.0 | 0.00 | 0.00 | 0.00 | 60 | 1017.9 |
| 20260505082715 | 51 | 0 | 0.0 | 0.0 | 0.00 | 0.00 | 0.00 | 60 | 1017.9 |
| 20260505081803 | 51 | 0 | 0.0 | 0.0 | 0.00 | 0.00 | 0.00 | 63 | 1017.9 |
| 20260505080903 | 51 | 0 | 0.0 | 0.9 | 0.00 | 0.00 | 0.00 | 66 | 1017.9 |
| 20260505080003 | 50 | 0 | 0.0 | 0.9 | 0.00 | 0.00 | 0.00 | 67 | 1017.9 |
| 20260505075415 | 50 | 0 | 0.0 | 0.0 | 0.00 | 0.00 | 0.00 | 68 | 1017.9 |
| 20260505074503 | 50 | 0 | 0.0 | 0.0 | 0.00 | 0.00 | 0.00 | 67 | 1017.9 |
| 20260505073615 | 50 | 0 | 0.0 | 0.0 | 0.00 | 0.00 | 0.00 | 67 | 1017.9 |
| 20260505063603 | 55 | 0 | 0.0 | 0.0 | 0.00 | 0.00 | 0.00 | 58 | 1017.9 |
| 20260505062703 | 56 | 0 | 0.0 | 0.0 | 0.00 | 0.00 | 0.00 | 57 | 1017.9 |
| 20260505061803 | 56 | 198 | 0.0 | 1.7 | 0.00 | 0.00 | 0.00 | 57 | 1017.9 |
| 20260505060903 | 56 | 0 | 0.0 | 0.9 | 0.00 | 0.00 | 0.00 | 58 | 1017.9 |
| 20260505060003 | 56 | 0 | 0.0 | 0.0 | 0.00 | 0.00 | 0.00 | 57 | 1017.9 |
| 20260505055403 | 56 | 0 | 0.0 | 0.0 | 0.00 | 0.00 | 0.00 | 56 | 1017.9 |
| 20260505054503 | 57 | 0 | 0.0 | 0.0 | 0.00 | 0.00 | 0.00 | 55 | 1017.9 |
| 20260505053603 | 58 | 0 | 0.0 | 0.0 | 0.00 | 0.00 | 0.00 | 53 | 1017.9 |
| 20260505052703 | 58 | 0 | 0.0 | 0.0 | 0.00 | 0.00 | 0.00 | 52 | 1017.9 |
| 20260505051803 | 58 | 198 | 0.0 | 3.5 | 0.00 | 0.00 | 0.00 | 52 | 1017.9 |
| 20260505050903 | 59 | 198 | 0.0 | 4.3 | 0.00 | 0.00 | 0.00 | 52 | 1017.9 |
| 20260505040903 | 61 | 0 | 0.0 | 0.9 | 0.00 | 0.00 | 0.00 | 45 | 1017.9 |
| 20260505040003 | 61 | 271 | 0.0 | 1.7 | 0.00 | 0.00 | 0.00 | 45 | 1017.9 |
| 20260505035403 | 61 | 271 | 0.0 | 1.7 | 0.00 | 0.00 | 0.00 | 45 | 1017.9 |
| 20260505034503 | 61 | 271 | 0.0 | 3.5 | 0.00 | 0.00 | 0.00 | 46 | 1017.9 |
| 20260505033603 | 61 | 0 | 0.0 | 0.0 | 0.00 | 0.00 | 0.00 | 46 | 1017.9 |
| 20260505032724 | 61 | 0 | 0.0 | 0.0 | 0.00 | 0.00 | 0.00 | 46 | 1017.9 |
| 20260505031803 | 61 | 0 | 0.0 | 0.0 | 0.00 | 0.00 | 0.00 | 46 | 1017.9 |
| 20260505030903 | 61 | 0 | 0.0 | 0.0 | 0.00 | 0.00 | 0.00 | 47 | 1017.9 |
| 20260505030003 | 61 | 0 | 0.0 | 0.0 | 0.00 | 0.00 | 0.00 | 47 | 1017.9 |
| 20260505025403 | 61 | 0 | 0.0 | 0.0 | 0.00 | 0.00 | 0.00 | 47 | 1017.9 |